THORAD DELTA 1 DEB, 8401

Orbit data source: Space-Track

THORAD DELTA 1 DEB, 8401 is space debris in SSO originally from a launch on Fri, 15 Nov 1974 UTC launched from the Air Force Western Test Range (AFWTR). Debris objects in space refer to the collection of defunct objects orbiting the Earth. Examples of debris include non-operational satellites, rocket bodies, and fragments generated from explosions, collisions, or faulty payload assembly.

Loading next visibility...
Identifier
8401, 1974-089CD
Orbit
SSO
Country
Flag of USUS
Related business
Manufacturer
Unknown
Mission
Spacecraft
Bus & Motor
Unknown
Mass
Unknown
Launch date (UTC)
1974-11-15 (51 years ago)
Launch vehicle
Unknown
Launch site
Air Force Western Test Range (AFWTR)
Object type
Payload
Rocket body
Debris
Shape & HBR
Unknown shape, 0.1 m
Radar Cross Section
Small (<0.1 m²)

Expand to show TLE details & history
Last TLE update: 1 day ago

TLE from 1 day ago
0 THORAD DELTA 1 DEB
1 08401U 74089CD  26048.14125085  .00000207  00000-0  13078-2 0  9997
2 08401 101.4181 125.7156 0066492 297.6351  91.1944 12.67188939370088
Epoch: 2026-02-17T03:23Z
TLE epoch observation values (Epoch: 2026-02-17T03:23:24.073Z)
Latitude
28.99459°
Longitude
-78.65462°
Altitude
1,398.169 km
Speed
7.163 km/s
True Right ascension
07h 57m 17s
True Declination
28° 51' 40"
Sunlit
Object was in full shadow at epoch
Visualization orbit readout
Latitude
Unknown
Longitude
Unknown
Altitude
Unknown
Speed
Unknown
Apparent Right ascension
Unknown
Apparent Declination
Unknown
Sunlit
N/A
Visualization observer readout
Local Sidereal Time
06:24:01
Azimuth
Unknown
Elevation
Unknown
Doppler factor
Unknown
Orbital elements
Apogee altitude
1,442.575 km
Perigee altitude
1,339.259 km
Semi-major axis
7,769.054 km
Eccentricity
0.00665
Inclination
101.4181°
RAAN
125.7156°
Arg. of periapsis
297.6351°
True anomaly
91.95602°
Mean anomaly
91.1944°
Eccentric anomaly
91.57523°
Mean motion
3.1695 °/min
Orbital period
113.58 mins
BSTAR
0.0013078
Loading maneuver chart data...
Computing Atmospheric mass density...

Documentation

Showing up to 5 results
|